THOR ABLESTAR DEB, 350

Orbit data source: Space-Track

THOR ABLESTAR DEB, 350 is space debris in LEO originally from a launch on Thu, 29 Jun 1961 UTC launched from the Air Force Eastern Test Range (AFETR). Debris objects in space refer to the collection of defunct objects orbiting the Earth. Examples of debris include non-operational satellites, rocket bodies, and fragments generated from explosions, collisions, or faulty payload assembly.

Loading next visibility...
Identifier
350, 1961-015DQ
Orbit
LEO
Country
Flag of USUS
Related business
Manufacturer
Unknown
Mission
Spacecraft
Bus & Motor
Unknown
Mass
Unknown
Launch date (UTC)
1961-06-29 (65 years ago)
Launch vehicle
Unknown
Launch site
Air Force Eastern Test Range (AFETR)
Object type
Payload
Rocket body
Debris
Shape & HBR
Unknown shape, 0.2 m
Radar Cross Section
Medium (>0.1 m² and <1 m²)

Expand to show TLE details & history
Last TLE update: 3 days ago

TLE from 3 days ago
0 THOR ABLESTAR DEB
1   350U 61015DQ  26171.42901468  .00000037  00000-0  49483-4 0  9994
2   350  66.9109 221.8008 0120920 149.0944 211.7344 14.22655164363412
Epoch: 2026-06-20T10:17Z
TLE epoch observation values (Epoch: 2026-06-20T10:17:46.868Z)
Latitude
0.00002°
Longitude
158.71176°
Altitude
892.789 km
Speed
7.368 km/s
True Right ascension
14h 47m 12s
True Declination
0° 00' 00"
Sunlit
Object was in full shadow at epoch
Visualization orbit readout
Latitude
Unknown
Longitude
Unknown
Altitude
Unknown
Speed
Unknown
Apparent Right ascension
Unknown
Apparent Declination
Unknown
Sunlit
N/A
Visualization observer readout
Local Sidereal Time
15:33:41
Azimuth
Unknown
Elevation
Unknown
Doppler factor
Unknown
Orbital elements
Apogee altitude
901.719 km
Perigee altitude
727.767 km
Semi-major axis
7,192.88 km
Eccentricity
0.01209
Inclination
66.9109°
RAAN
221.8008°
Arg. of periapsis
149.0944°
True anomaly
211.01485°
Mean anomaly
211.7344°
Eccentric anomaly
211.37371°
Mean motion
3.55786 °/min
Orbital period
101.18 mins
BSTAR
0.000049483
Loading maneuver chart data...
Computing Atmospheric mass density...

Documentation

Showing up to 5 results
|